Regional Weather Roundup
Issued by NWS

Home | Current Version | Previous Version | Graphics & Text | Print | Product List | Glossary On
Versions: 1 2 3 4 5 6 7 8 9 10 11 12 13 14 15 16 17 18 19 20 21 22 23 24 25 26 27 28 29 30 31 32 33 34 35 36 37 38 39 40 41 42 43 44 45 46 47 48 49 50
000
ASUS43 KLOT 260803
RWRIL

ILLINOIS REGIONAL WEATHER ROUNDUP
NATIONAL WEATHER SERVICE CHICAGO/ROMEOVILLE IL
300 AM CDT WED APR 26 2017

NOTE: "FAIR" INDICATES FEW OR NO CLOUDS BELOW 12,000 FEET WITH NO
SIGNIFICANT WEATHER AND/OR OBSTRUCTIONS TO VISIBILITY.

* THESE STATIONS ARE NOT UNDER NWS QUALITY CONTROL. THEY ALSO MAY NOT
  REPORT WEATHER SUCH AS PRECIPITATION OR FOG.

ILZ001-002-007-009-015-016-024-260900-
NORTHWEST ILLINOIS

CITY           SKY/WX    TMP DP  RH WIND       PRES   REMARKS
MOLINE         CLOUDY    67  52  58 SW6       29.40F
STERLING*      CLOUDY    67  52  58 VRB6      29.43F
SAVANNA*       MOCLDY    64  53  69 SE5       29.42F
$$

ILZ003-004-008-010-011-017-018-260900-
NORTH CENTRAL ILLINOIS

CITY           SKY/WX    TMP DP  RH WIND       PRES   REMARKS
ROCKFORD       CLOUDY    68  53  58 S12       29.46F
FREEPORT*      CLOUDY    65  52  63 S14G22    29.45F
ROCHELLE*      CLOUDY    64  54  70 S13       29.47F
DE KALB*       CLOUDY    64  55  72 S14       29.49F
PERU*          CLOUDY    64  52  64 S9        29.47F
$$

ILZ005-006-012>014-019>023-260900-
NORTHEAST ILLINOIS

CITY           SKY/WX    TMP DP  RH WIND       PRES   REMARKS
CHICAGO-OHARE  CLOUDY    67  54  63 S14       29.49F
CHICAGO-MIDWAY CLOUDY    68  55  63 S13       29.50F
AURORA         CLOUDY    66  56  70 S15       29.49F
LANSING*       CLOUDY    64  57  77 S9        29.53F
JOLIET*        CLOUDY    67  57  69 S8        29.51S
WAUKEGAN       MOCLDY    57  51  80 SE7       29.49F
DUPAGE AIRPORT CLOUDY    65  56  72 S12       29.49F
KANKAKEE*      MOCLDY    65  55  68 S13       29.52F
WHEELING       CLOUDY    67  56  67 S12       29.50F
MORRIS*        CLOUDY    65  55  69 S13       29.48S
NORTHERLY ISL    N/A     64  53  67 SE8         N/A
$$

LMZ740>746-260900-
SOUTHERN LAKE MICHIGAN

STATION/POSITION SKY/WX   TEMP    WIND        PRES    VSBY  WAVE
                          AIR SEA DIR/SP/G                  HT/PER
                          (F)     (DEG/KT/KT) (MB)    (MI)  (FT/S)
SOUTHERN BUOY              50 41  110/ 12/ 14 1001.0          1
HARRISON CRIB              61     160/ 17/ 18   N/A
BURNHAM HARBOR             65     150/  8/ 12   N/A
CALUMET HARBOR             67     150/  7/ 11  999.3F
BURNS HARBOR               68     160/ 10/ 19 1000.7F
MICHIGAN CITY              66     150/ 10/ 12   N/A
ST. JOSEPH                 61 50  170/ 14/ 17 1001.1F         1/ 2
$$

ILZ025>027-034>036-040-047-049-050-058-095>099-260900-
WEST-CENTRAL ILLINOIS

CITY           SKY/WX    TMP DP  RH WIND       PRES   REMARKS
QUINCY         CLOUDY    68  53  58 SW9       29.45S
GALESBURG*     CLOUDY    66  51  58 S8        29.43F
MACOMB*        CLOUDY    66  51  57 S10       29.45F
JACKSONVILLE*  PTCLDY    65  51  59 S8        29.46F
PITTSFIELD*    CLOUDY    68  53  59 S6        29.46F
$$

ILZ028>032-037-038-041>044-048-051>054-059>061-260900-
CENTRAL ILLINOIS

CITY           SKY/WX    TMP DP  RH WIND       PRES   REMARKS
PONTIAC        CLOUDY    67  57  72 S16G22    29.50F
BLOOMINGTON    CLOUDY    63  55  75 S13       29.50F
DECATUR        CLOUDY    65  57  75 S13       29.50F
PEORIA         CLOUDY    66  51  58 S13       29.45F
LACON*         CLOUDY    64  52  64 S8        29.45F
LINCOLN*       CLOUDY    65  55  70 S6        29.47F
SPRINGFIELD    CLOUDY    66  51  58 S12       29.47F
TAYLORVILLE    CLOUDY    65  54  68 S13       29.49F
$$

ILZ033-039-045-046-055>057-062-063-260900-
EAST-CENTRAL ILLINOIS

CITY           SKY/WX    TMP DP  RH WIND       PRES   REMARKS
CHAMPAIGN      CLOUDY    66  54  65 S16       29.52F
RANTOUL*       MOCLDY    67  57  72 S13       29.53F
MATTOON        CLOUDY    64  57  78 S10       29.53F
PARIS*         MOCLDY    63  57  80 SE12      29.57F
$$

ILZ079-100>102-260900-
SOUTHWEST ILLINOIS

CITY           SKY/WX    TMP DP  RH WIND       PRES   REMARKS
ALTON          PTCLDY    65  52  62 S7        29.48F
BELLEVILLE     PTCLDY    66  54  66 SE5       29.48F
CAHOKIA*       CLOUDY    68  51  54 S6        29.47F
SPARTA*        MOCLDY    66  53  62 S10       29.52F
$$

ILZ064>066-069>071-074>076-080>082-084>086-088>090-092>094-260900-
SOUTH-CENTRAL ILLINOIS

CITY           SKY/WX    TMP DP  RH WIND       PRES   REMARKS
CARBONDALE     MOCLDY    69  55  60 S14       29.55F
CAIRO*         CLOUDY    66  56  68 S8        29.58S
EFFINGHAM*     CLOUDY    65  57  77 SE7       29.55F
MARION         CLOUDY    64  57  77 S7        29.57S
MT. VERNON     PTCLDY    64  56  75 S6        29.55F
CENTRALIA*     PTCLDY    67  56  69 S14       29.52F
SALEM*         CLOUDY    67  55  64 SE9       29.53F
METROPOLIS*    CLOUDY    66  55  68 S6        29.59F
$$

ILZ067-068-072-073-078-083-087-091-260900-
SOUTHEAST ILLINOIS

CITY           SKY/WX    TMP DP  RH WIND       PRES   REMARKS
LAWRENCEVILLE  PTCLDY    64  57  78 SE13      29.59F
FLORA*         CLOUDY    64  57  79 S10       29.56F
FAIRFIELD*     CLOUDY    64  56  76 SE3       29.55F
HARRISBURG*    PTCLDY    61  56  84 SE3       29.58F
ROBINSON*      PTCLDY    63  56  79 S9        29.58F
CARMI*         CLOUDY    61  57  88 SE9       29.58F
$$

ABBREVIATIONS USED IN REMARKS
   TC - TEMPERATURE IN CELSIUS
  WCI - WIND CHILL INDEX
   HX - HEAT INDEX
  VSB - VISIBILITY
$$




USA.gov is the U.S. government's official web portal to all federal, state and local government web resources and services.